This is the latest recevied weather packets stored in our database for station/object TA2LKM-11. If no packets are shown the sender has not sent any weather packets the latest 10 day(s).
| Time | Temp. | Humidity | Pressure | Rain* | Wind** | Luminosity | Snow |
|---|---|---|---|---|---|---|---|
| 1788618381 | 31.67° C | 42% | 1014.1 hPa | - | - | - | - |
| 1788617480 | 32.22° C | 42% | 1014 hPa | - | - | - | - |
| 1788616579 | 32.22° C | 39% | 1014 hPa | - | - | - | - |
| 1788615678 | 32.78° C | 38% | 1014 hPa | - | - | - | - |
| 1788614777 | 33.33° C | 37% | 1014.1 hPa | - | - | - | - |
| 1788614689 | 33.33° C | 36% | 1014.1 hPa | - | - | - | - |
| 1788613788 | 33.89° C | 34% | 1014.1 hPa | - | - | - | - |
| 1788612887 | 33.89° C | 30% | 1014.1 hPa | - | - | - | - |
| 1788611987 | 34.44° C | 31% | 1014.1 hPa | - | - | - | - |
| 1788611086 | 34.44° C | 32% | 1014.1 hPa | - | - | - | - |
| 1788610997 | 34.44° C | 31% | 1014.3 hPa | - | - | - | - |
| 1788610096 | 35° C | 33% | 1014.3 hPa | - | - | - | - |
| 1788609195 | 34.44° C | 34% | 1014.5 hPa | - | - | - | - |
| 1788608294 | 34.44° C | 29% | 1014.6 hPa | - | - | - | - |
| 1788608206 | 33.89° C | 29% | 1014.7 hPa | - | - | - | - |
| 1788607305 | 33.89° C | 30% | 1014.8 hPa | - | - | - | - |
| 1788606405 | 35° C | 31% | 1014.9 hPa | - | - | - | - |
| 1788605504 | 35° C | 34% | 1015.2 hPa | - | - | - | - |
| 1788604603 | 33.89° C | 35% | 1015.2 hPa | - | - | - | - |
| 1788604515 | 33.33° C | 36% | 1015.3 hPa | - | - | - | - |
| 1788603614 | 34.44° C | 33% | 1015.5 hPa | - | - | - | - |
| 1788602713 | 34.44° C | 35% | 1015.6 hPa | - | - | - | - |
| 1788601813 | 33.89° C | 36% | 1015.7 hPa | - | - | - | - |
| 1788600911 | 32.22° C | 38% | 1015.9 hPa | - | - | - | - |
| 1788600011 | 33.33° C | 36% | 1016 hPa | - | - | - | - |
* Rain since midnight (hover to see other rain measurements)
** Current wind speed in m/s (hover to see current wind gust speed)